User: anonymous   Login
Location: Unspecified
(0.0000°N, 0.0000°E)
Time: 05:47:00
(UTC+02:00)
Language:

CZ-2C R/B - Orbit

View from above orbital plane
View from above orbital plane
View from above satellite
View from above satellite

Ground track
Ground track

The orbit data is extracted from the following two-line orbital elements,

1 28480U 04046B   17231.91020274 -.00000021  00000-0  75421-5 0  9993
2 28480  98.1968 323.9978 0142707  36.9576  79.6298 14.25644690663314
Epoch (UTC): 19 August 2017 21:50:41
Eccentricity: 0.0142707
inclination: 98.1968°
perigee height: 704 km
apogee height: 909 km
right ascension of ascending node: 323.9978°
argument of perigee: 36.9576°
revolutions per day: 14.25644690
mean anomaly at epoch: 79.6298°
orbit number at epoch: 66331

The dashed part of the orbit path shows where the satellite is in the earth's shadow,  

DLR